Location: Le Lou-du-Lac
(48.2093°N, 1.9908°W)
Time: 15:45:36
(UTC+00:00)

Daily predictions for brighter satellites

Satellite Brightness Start Highest point End
(mag) Time Altitude Azimuth Time Altitude Azimuth Time Altitude Azimuth
ASTEX 1 3.4 20:00:47 10° SSE 20:05:43 77° E 20:10:41 10° N
SPOT 5 3.4 20:01:40 10° S 20:05:51 53° W 20:10:08 10° NNW
CZ-4B DEB 4.3 20:01:43 10° SSE 20:07:14 84° ENE 20:12:47 10° NNW
Cosmos 2056 Rocket 3.6 20:03:14 10° SSW 20:08:38 81° ESE 20:14:02 10° NNE
Cosmos 1833 Rocket 2.7 20:04:04 10° SSW 20:09:35 65° ESE 20:15:10 10° NNE
CZ-4B R/B 3.4 20:04:00 10° SSE 20:09:36 66° ENE 20:15:12 10° N
CSL-04 Rocket 4.2 20:04:51 10° S 20:10:18 62° WSW 20:15:44 10° NNW
Cosmos 1624 Rocket 4.0 20:06:26 10° SSW 20:11:35 82° ESE 20:16:48 10° NNE
Terra 1.8 20:09:05 10° SSE 20:13:45 71° ENE 20:18:26 10° N
Gbstr 26 Del rocket 3.6 20:08:22 10° WNW 20:13:47 67° NNE 20:18:11 10° E
CBERS 1 LM4 rocket 4.5 20:09:26 10° SSE 20:14:17 75° ENE 20:19:23 10° NNW
Sich 1 Rocket 4.1 20:11:56 10° SSE 20:15:58 38° E 20:20:01 10° NNE
SJ 16-02 3.3 20:16:42 10° NW 20:20:13 26° W 20:23:45 10° SSW
MetOp-B 4.2 20:18:59 10° SSE 20:24:20 87° ENE 20:29:44 10° NNW
USA 229 DEB 4.2 20:18:07 10° NW 20:25:38 81° SW 20:33:55 10° SSE
USA 229 4.2 20:18:10 10° NW 20:25:42 82° SW 20:34:00 10° SSE
PAYLOAD B 4.4 20:20:30 10° SSE 20:26:00 79° WSW 20:31:34 10° NNW
Cosmos 1743 3.6 20:24:08 10° NNE 20:26:35 22° ENE 20:28:34 13° ESE
Cosmos 44 Rocket 4.0 20:25:36 10° S 20:30:10 36° ESE 20:34:51 10° NE
SKYMED 3 4.3 20:26:56 10° NNE 20:30:52 65° ESE 20:34:46 10° S
ISS -2.4 20:28:25 10° S 20:30:56 20° SE 20:33:27 10° E
Cosmos 1459 Rocket 4.0 20:25:40 10° S 20:31:49 63° E 20:37:55 10° NNE
Cosmos 2100 Rocket 4.0 20:29:12 10° S 20:35:21 73° E 20:41:39 10° NNE
Ariane Rocket 4.2 20:32:21 11° ESE 20:36:17 27° ENE 20:40:29 10° N
SL-24 R/B 4.5 20:32:14 10° N 20:36:27 69° WNW 20:40:50 10° SSW
ATLAS 2AS CENTAUR R/B 3.1 20:31:41 10° SW 20:38:37 69° NW 20:45:27 10° NE
ADEOS 3.7 20:33:41 10° SSE 20:38:53 81° WSW 20:44:08 10° NNW
BREEZE-M DEB (TANK) 3.2 20:38:35 10° WNW 20:41:20 62° SSW 20:47:10 13° ESE
SL-4 R/B 2.5 20:38:12 10° WNW 20:41:52 45° SSW 20:44:44 16° SE
Spot 2 Rocket 3.5 20:37:01 10° SSE 20:41:59 71° ENE 20:47:01 10° N
Cosmos 2322 Rocket 4.4 20:40:32 10° N 20:43:24 14° NNE 20:46:16 10° ENE
Cosmos 2151 Rocket 4.0 20:39:27 10° SSW 20:43:46 66° WNW 20:48:08 10° N
MOS 1-B 4.4 20:39:56 10° SSE 20:45:38 73° ENE 20:51:27 10° NNW
Cosmos 2082 Rocket 3.1 20:41:09 10° SSE 20:45:54 28° ESE 20:50:39 10° NE
Okean 2 Rocket 3.2 20:41:40 10° S 20:46:08 83° W 20:50:39 10° N
USA 305 3.7 20:43:36 10° NW 20:47:28 40° NNE 20:51:01 10° E
Cosmos 1536 Rocket 4.4 20:48:04 10° NNW 20:52:16 49° W 20:56:28 10° SSW
Cosmos 1607 4.4 20:51:01 10° S 20:56:36 38° ESE 21:02:17 10° NE
Cosmos 2233 Rocket 4.3 20:51:19 11° SSE 20:57:00 47° E 21:02:52 10° NNE
Cosmos 292 Rocket 4.2 20:52:32 10° NNW 20:57:14 60° WSW 21:01:33 12° S
Cosmos 2228 3.5 20:55:36 17° SSE 20:58:15 37° E 21:02:04 10° NNE
USA 186 1.2 20:58:27 22° SSE 20:59:58 87° WSW 21:02:42 10° NNW
Timation 1 Rocket 4.3 20:54:01 10° SSW 21:00:01 80° ESE 21:06:03 10° NNE
Okean O Rocket 1.6 20:57:28 13° SSE 21:01:16 81° WSW 21:05:35 10° NNW
Helios 1A Rocket 4.4 20:59:33 10° N 21:02:22 29° WNW 21:05:09 10° SW
Tsikada Rocket 4.1 20:58:11 10° N 21:04:17 58° ENE 21:08:51 18° SSE
ERS-1 Rocket 4.3 21:01:25 10° SSW 21:06:00 36° W 21:10:38 10° NNW
Cosmos 1697 Rocket 3.5 21:01:20 10° NW 21:06:42 46° WSW 21:11:52 11° S
CZ-4C R/B 1.6 21:03:11 10° SSW 21:07:17 74° SE 21:12:35 10° NE
Cosmos 1725 Rocket 4.0 21:01:43 10° S 21:08:00 80° E 21:14:16 10° N
Cosmos 1452 Rocket 3.4 21:03:13 10° SSW 21:08:25 73° ESE 21:13:38 10° NNE
Cosmos 1741 Rocket 4.1 21:03:36 10° NNW 21:08:56 77° WSW 21:13:01 17° SSE
SL-16 R/B 3.6 21:06:04 10° NNW 21:10:53 27° NE 21:14:58 13° E
Okean-O 3.0 21:10:27 14° S 21:14:11 63° W 21:18:32 10° NNW
ATLAS 3B R/B 3.3 21:07:28 10° NW 21:15:05 60° WSW 21:20:47 17° SSE
Cosmos 1331 Rocket 4.3 21:12:25 10° SSW 21:17:39 70° WNW 21:22:53 10° NNE
Cosmos 1892 Rocket 3.7 21:16:01 10° NNW 21:20:21 71° W 21:23:27 18° S
CZ-4B R/B 3.4 21:19:07 24° SSE 21:21:58 67° ENE 21:26:43 10° N
USA 245 4.3 21:18:48 19° SSE 21:23:11 88° ENE 21:29:05 10° NNW
Cosmos 2333 Rocket 3.5 21:18:52 10° NNW 21:23:51 30° NE 21:27:39 15° E
Cosmos 1455 Rocket 3.2 21:20:08 10° SSW 21:24:32 73° W 21:28:57 10° N
Cosmos 1302 Rocket 3.9 21:21:10 11° S 21:26:08 63° ESE 21:31:15 10° NNE
Cosmos 2016 Rocket 4.1 21:20:48 10° S 21:27:05 83° W 21:33:21 10° N
CZ-4B R/B 2.4 21:33:11 34° S 21:34:30 75° WSW 21:37:53 10° NNW
Cosmos 2061 Rocket 3.9 21:29:50 16° S 21:34:52 75° E 21:41:08 10° NNE
Cosmos 1980 Rocket 2.5 21:29:19 10° NNW 21:34:57 61° WSW 21:38:33 22° S
Cosmos 1782 2.8 21:32:58 19° SSW 21:35:21 66° W 21:38:52 10° N
Cosmos 1544 Rocket 4.0 21:35:33 32° SE 21:36:57 42° E 21:41:04 10° NNE
Cosmos 724 4.2 21:31:07 10° SSW 21:37:10 83° SE 21:43:07 10° NE
SPOT 3 Rocket 3.6 21:34:29 23° S 21:37:47 77° WSW 21:42:57 10° NNW
BREEZE-M DEB (TANK) 4.5 21:34:20 10° SW 21:36:17 18° SSW 21:36:17 18° SSW
NOSS 3-3 (A) 3.9 21:34:26 17° S 21:38:08 46° ESE 21:43:50 10° NE
Cosmos 1933 3.9 21:44:19 34° ESE 21:44:39 34° E 21:48:08 10° NNE
Cosmos 2084 Rocket 3.4 21:44:37 10° NW 21:48:50 78° NE 21:50:19 39° SE
Terra 4.3 21:49:04 10° SW 21:51:47 15° W 21:54:30 10° NW
Cosmos 1758 Rocket 3.5 21:47:47 10° N 21:52:10 75° E 21:53:42 40° SSE
Helios 1B rocket 3.9 21:51:51 18° ENE 21:52:22 18° ENE 21:54:51 10° NNE
IRS-1C Rocket 4.2 21:51:54 27° S 21:54:50 70° WSW 22:00:08 10° NNW
CZ-2C R/B 2.0 21:55:17 66° WSW 21:55:21 66° WSW 21:58:08 10° NNW
Gbstr 26 Del rocket 3.4 21:55:26 10° WNW 22:00:02 45° SW 22:00:52 40° S
Cosmos 2360 Rocket 3.4 21:56:01 10° NNW 22:01:08 33° NE 22:04:14 20° E
NOSS 3-3 (C) 3.6 22:02:52 24° SSW 22:05:58 60° ESE 22:12:01 10° NE
ISS -3.9 22:04:03 10° WSW 22:07:23 88° NNW 22:08:15 48° ENE
Cosmos 1825 Rocket 4.5 22:04:28 10° N 22:08:25 33° ENE 22:09:11 31° E
ARIANE 5 R/B 4.5 22:07:11 17° E 22:08:35 19° ENE 22:11:43 10° NNE
Geosat 3.9 22:05:01 10° NNE 22:10:01 70° ESE 22:12:24 31° SSW
Cosmos 2237 4.3 22:05:06 10° NNW 22:10:49 69° WSW 22:13:13 35° S
USA 305 2.2 22:09:05 10° WNW 22:13:07 76° SSW 22:13:08 76° SSW
Ariane Rocket 3.7 22:12:25 26° SSW 22:14:55 47° W 22:19:49 10° NNW
Cosmos 1602 Rocket 3.4 22:13:31 10° N 22:17:50 79° E 22:18:42 56° SSE
DEBRIS 4.0 22:14:26 10° W 22:18:04 81° N 22:30:53 10° E
Cosmos 2219 Rocket 3.6 22:13:42 10° NNW 22:18:37 29° NE 22:21:47 18° E
NOSS 3-4 (A) 4.2 22:14:39 10° NW 22:21:05 55° NE 22:26:01 22° ESE
NOSS 3-4 (C) 4.3 22:15:15 10° NW 22:21:42 55° NE 22:26:40 22° ESE
Cosmos 1437 Rocket 2.3 22:21:47 82° SSW 22:21:56 87° WNW 22:25:30 10° N
Cosmos 2369 4.3 22:20:39 10° NW 22:26:05 47° WSW 22:28:18 31° SSW
Cosmos 2151 3.3 22:24:02 10° NNW 22:28:05 56° W 22:28:56 46° SW
Cosmos 2322 Rocket 2.7 22:23:18 10° NNW 22:28:50 51° NE 22:31:03 33° ESE
Cosmos 2034 Rocket 4.4 22:27:37 36° SE 22:29:36 47° E 22:35:39 10° NNE
Cosmos 2082 Rocket 2.9 22:24:02 10° SW 22:29:38 55° WNW 22:35:15 10° NNE
Cosmos 220 Rocket 4.2 22:32:37 46° E 22:32:37 46° E 22:36:08 10° NNE
Meteor 1-5 Rocket 4.2 22:32:31 10° N 22:38:12 84° ENE 22:40:03 46° SSE
USA 234 3.4 22:34:07 10° ENE 22:40:28 50° SE 22:42:49 35° S
Cosmos 1763 Rocket 4.3 22:45:39 34° ESE 22:45:44 35° ESE 22:50:29 10° NE
Okean 1-7 Rocket 3.4 22:42:07 10° N 22:46:34 86° W 22:47:08 68° S
Cosmos-2242 4.1 22:47:28 30° ENE 22:47:28 30° ENE 22:50:42 10° NNE
IKONOS-2 4.4 22:43:26 10° NNE 22:47:35 80° WNW 22:48:03 67° SW
Cosmos 1503 Rocket 4.3 22:42:35 10° NNW 22:47:44 57° ENE 22:49:02 44° ESE
Cosmos 1777 Rocket 4.0 22:42:47 10° NNW 22:48:03 73° ENE 22:49:16 52° SE
Cosmos 2278 3.6 22:42:17 10° NNW 22:48:03 89° SW 22:49:38 50° SSE
Cosmos 909 Rocket 4.5 22:42:00 10° SW 22:48:14 62° NW 22:54:43 10° NNE
Helios 1A 2.7 22:44:36 10° NNE 22:48:34 83° WNW 22:48:44 79° SW
Cosmos 1805 3.6 22:48:19 10° NNW 22:51:00 47° WNW 22:51:00 47° WNW
COSMOS 2406 3.4 22:49:26 25° SW 22:52:50 71° WNW 22:58:35 10° NNE
Cosmos 1606 Rocket 3.4 22:52:45 74° S 22:53:08 89° E 22:57:30 10° N
SL-16 R/B 2.3 22:49:48 10° NNW 22:55:25 64° WSW 22:56:47 48° SSW
CZ-4C R/B 4.1 22:52:05 10° W 22:56:07 28° NNW 23:01:08 10° NNE
Cosmos 1634 Rocket 4.5 22:57:50 38° ESE 22:59:14 44° E 23:05:03 10° NNE
Cosmos 1486 Rocket 3.9 22:54:33 10° NNW 22:59:49 81° WSW 23:00:50 59° S
CSL-04 DEB 4.3 23:00:26 67° NNW 23:00:26 67° NNW 23:03:36 10° NNW
Nadezhda 4 Rocket 4.0 22:54:44 10° NNW 23:00:49 70° W 23:02:51 43° SSW
Cosmos 1766 4.3 22:59:09 10° N 23:01:17 30° NE 23:01:17 30° NE
Cosmos 2098 Rocket 3.8 23:02:10 40° SW 23:03:43 57° W 23:08:19 10° N
Cosmos 1726 Rocket 3.3 23:06:20 86° NNE 23:06:20 86° NNE 23:10:19 10° N
SeaSat 1 4.2 23:03:53 16° E 23:06:37 26° NE 23:10:37 10° N
Cosmos 2333 Rocket 2.4 23:02:54 10° NW 23:08:29 57° WSW 23:09:39 48° SSW
Cosmos 2221 4.5 23:09:57 17° ENE 23:09:57 17° ENE 23:12:14 10° NE
Meteor 2-2 Rocket 4.4 23:10:21 48° SE 23:11:16 54° E 23:16:50 10° NNE
Cosmos 1076 Rocket 3.4 23:07:17 10° NNW 23:11:34 77° W 23:11:38 77° WSW
Cosmos 1627 Rocket 4.5 23:09:35 10° N 23:16:01 86° E 23:17:52 50° SSE
BREEZE-M DEB (TANK) 3.6 23:07:22 10° W 23:16:35 86° S 23:21:29 10° E
CZ-2C R/B 3.9 23:16:22 24° E 23:18:14 30° ENE 23:22:46 10° N
Cosmos 1833 4.3 23:17:41 53° SE 23:18:14 55° ESE 23:23:45 10° NE
Cosmos 2195 Rocket 4.5 23:12:42 10° NNW 23:18:58 75° W 23:20:43 49° SSW
Okean 1 3.9 23:23:58 44° NW 23:23:58 44° NW 23:27:03 10° N
Spot 4 3.6 23:23:21 74° SSE 23:23:48 89° ENE 23:28:37 10° NNW
Helios 1B rocket 3.4 23:25:49 32° WNW 23:25:49 32° WNW 23:28:23 10° NNW
Cosmos 2026 Rocket 4.0 23:19:06 10° N 23:25:29 79° W 23:27:17 50° S
Cosmos 1975 4.3 23:25:29 10° NNE 23:28:17 25° ENE 23:28:17 25° ENE
Aureole 1 Rocket 4.1 23:24:53 10° NNW 23:30:08 59° ENE 23:32:03 41° ESE
DNEPR-1 R/B 4.4 23:26:57 10° NW 23:32:25 62° SW 23:33:33 53° SSW
Cosmos 2297 Rocket 4.4 23:33:58 11° E 23:34:13 11° E 23:35:49 10° ENE
Cosmos 44 4.3 23:30:35 10° NNW 23:35:49 47° NE 23:38:07 29° E
Cosmos 1271 Rocket 4.3 23:38:07 25° NE 23:38:07 25° NE 23:39:58 10° NNE
Cosmos 2333 4.2 23:32:55 10° NNW 23:38:36 68° WSW 23:39:28 58° SSW
Cosmos 372 Rocket 4.4 23:37:26 10° NNW 23:42:28 53° ENE 23:43:34 44° ESE
RESURS DK-1 4.2 23:39:47 10° N 23:43:03 24° NE 23:44:13 21° ENE
ALOS 2 2.6 23:43:55 69° W 23:43:55 69° W 23:48:14 10° NNW
ISS -0.9 23:41:10 10° WNW 23:41:23 11° WNW 23:41:23 11° WNW
BREEZE-M DEB 4.5 23:39:33 10° WSW 23:44:26 70° SSE 23:59:27 10° E
ARIANE 5 R/B 2.9 23:44:33 56° W 23:44:33 56° W 23:48:52 10° NNW
Cosmos 2360 Rocket 2.5 23:39:51 10° NW 23:45:21 51° WSW 23:45:57 48° SW
Meteor 1-26 Rocket 4.2 23:45:25 53° SW 23:46:35 70° WNW 23:52:12 10° N
Cosmos 1953 Rocket 4.3 23:43:45 10° NNW 23:47:48 41° W 23:47:48 41° W
Cosmos 2058 Rocket 3.1 23:48:53 69° WNW 23:48:53 69° WNW 23:53:13 10° N
GP-B 3.9 23:45:09 10° NNE 23:49:14 40° E 23:49:14 40° E
Cosmos 468 Rocket 4.0 23:51:08 61° SE 23:51:28 62° ESE 23:56:40 10° NNE
